{"data":{"norad_id":37749,"intl_designator":"2011-035B","name":"KAZSAT-2","alt_names":[],"object_type":"PAYLOAD","status":"ACTIVE","operator":null,"country":"KAZ","launch_date":"2011-07-15","launch_site_code":"TYMSC","launch_vehicle":null,"mission":null,"orbit_class":"UNKNOWN","rcs_meters":7.0794,"size_class":null,"mass_kg":null,"dimensions":null,"purposes":["comms"],"wikipedia_slug":null,"has_3d_model":false,"image_url":null,"decayed_at":null,"tle_current":{"epoch":"2026-05-25T02:26:37.792320Z","epoch_age_seconds":62325,"freshness":"FRESH","line1":"1 37749U 11035B   26145.10182630 -.00000200  00000+0  00000+0 0  9990","line2":"2 37749   0.0399 258.6208 0000475 222.5967 244.6345  1.00273295 53165","mean_motion":1.00273295,"eccentricity":4.75e-5,"inclination_deg":0.0399,"raan_deg":258.6208,"arg_perigee_deg":222.5967,"mean_anomaly_deg":244.6345,"bstar":0,"rev_number":5316,"period_min":1436.0752780688,"perigee_km":35784.168854027,"apogee_km":35788.174463349,"semimajor_km":42164.308658688,"source":"CELESTRAK","updated_at":"2026-05-25T13:38:13.902204Z"}}}